Chelan, Washington, United States (98816)
Lat: 47.84N, Lon: 120.02W
Wx Zone: WAZ041
Local Info
Past Weather Observations for Today

NOTE: This archive is for the closest National Weather Service station to Chelan. Information may differ from the station used for current weather conditions.

Click here for Long-term Archive

Time Weather Temperature Dewpoint Humidity Pressure Winds Precip Visibility
22:55
Clear
45°F / 7°C 28°F / -2°C 53% 30.01 in
(1016 mb)
NNW 16.1 mph
(NNW 26 kph)
- 10SM
21:55
Clear
45°F / 7°C 28°F / -2°C 53% 29.98 in
(1015 mb)
NW 19.6 mph
(NW 32 kph)
- 10SM
20:55
Clear
43°F / 6°C 30°F / -1°C 61% 29.98 in
(1015 mb)
NW 20.7 mph
(NW 33 kph)
- 10SM
19:55
Clear
45°F / 7°C 30°F / -1°C 57% 29.95 in
(1014 mb)
NW 19.6 mph
(NW 32 kph)
- 10SM
18:55
Clear
43°F / 6°C 30°F / -1°C 61% 29.92 in
(1013 mb)
NW 24.2 mph
(NW 39 kph)
- 10SM
17:55
Clear
43°F / 6°C 30°F / -1°C 61% 29.89 in
(1012 mb)
NW 19.6 mph
(NW 32 kph)
- 10SM
16:55
Clear
43°F / 6°C 32°F / 0°C 66% 29.86 in
(1011 mb)
NNW 15 mph
(NNW 24 kph)
- 10SM
15:55
Clear
45°F / 7°C 34°F / 1°C 66% 29.8 in
(1009 mb)
NNW 19.6 mph
(NNW 32 kph)
- 10SM
14:55
Clear
43°F / 6°C 34°F / 1°C 71% 29.77 in
(1008 mb)
NW 19.6 mph
(NW 32 kph)
- 10SM
13:55
Partly Cloudy
41°F / 5°C 34°F / 1°C 76% 29.74 in
(1007 mb)
SW 9.2 mph
(SW 15 kph)
- 10SM
12:55
Mostly Cloudy
43°F / 6°C 34°F / 1°C 71% 29.71 in
(1006 mb)
NW 12.7 mph
(NW 20 kph)
- 10SM
11:55
Mostly Cloudy
41°F / 5°C 32°F / 0°C 70% 29.71 in
(1006 mb)
NW 10.4 mph
(NW 17 kph)
0.00 in
(0.00 mm)
10SM
10:55
Mostly Cloudy
39°F / 4°C 32°F / 0°C 75% 29.71 in
(1006 mb)
WNW 10.4 mph
(WNW 17 kph)
- 10SM
09:55
Partly Cloudy
36°F / 2°C 30°F / -1°C 81% 29.68 in
(1005 mb)
SSW 3.5 mph
(SSW 6 kph)
- 10SM
08:55
Clear
37°F / 3°C 28°F / -2°C 70% 29.68 in
(1005 mb)
E 3.5 mph
(E 6 kph)
- 10SM
07:55
Clear
36°F / 2°C 28°F / -2°C 75% 29.62 in
(1003 mb)
E 4.6 mph
(E 7 kph)
- 10SM
06:55
Clear
34°F / 1°C 28°F / -2°C 81% 29.59 in
(1002 mb)
E 5.8 mph
(E 9 kph)
0.00 in
(0.00 mm)
10SM
05:55
Clear
Light Snow
32°F / 0°C 28°F / -2°C 87% 29.56 in
(1001 mb)
E 9.2 mph
(E 15 kph)
0.00 in
(0.00 mm)
10SM
04:55
Clear
36°F / 2°C 30°F / -1°C 81% 29.53 in
(1000 mb)
S 4.6 mph
(S 7 kph)
0.00 in
(0.00 mm)
10SM
03:55
Mostly Cloudy
Light Snow
37°F / 3°C 32°F / 0°C 81% 29.5 in
(999 mb)
NNW 15 mph
(NNW 24 kph)
0.00 in
(0.00 mm)
10SM
02:55
Clear
27°F / -3°C 21°F / -6°C 80% 29.47 in
(998 mb)
W 11.5 mph
(W 19 kph)
- 10SM
01:55
Clear
27°F / -3°C 21°F / -6°C 80% 29.44 in
(997 mb)
Variable 4.6 mph
(Variable 7 kph)
0.00 in
(0.00 mm)
10SM
00:55
Partly Cloudy
27°F / -3°C 25°F / -4°C 93% 29.42 in
(996 mb)
E 6.9 mph
(E 11 kph)
- 8SM
00:42
Partly Cloudy
Fog And Mist
28°F / -2°C 25°F / -4°C 86% 29.42 in
(996 mb)
ENE 5.8 mph
(ENE 9 kph)
- 2SM
00:39
Obscured
Fog And Mist
28°F / -2°C 25°F / -4°C 86% 29.42 in
(996 mb)
SE 5.8 mph
(SE 9 kph)
- 1SM
Time Weather Temperature Dewpoint Humidity Pressure Winds Precip Visibility


Weather for websites

WeatherForYou.com, LLC is not responsible for any damages or problems caused by this service. Current weather conditions are obtained from the closest station including government and personal stations which may have varying degrees of accuracy. Weather forecasts are derived from the NOAA NDFD. Like all things, this site belongs to Jesus Christ... He just trusts me to maintain it. If you have any questions or comments email webmaster@weatherforyou.com

Copyright © 2014, WeatherForYou.com LLC. All rights reserved.